Location: Allison Elementary School
(34.0784°N, 117.7317°W)
Time: 18:05:07
(UTC+00:00)

Cosmos 1607 - Pass Details

Date: 15 November 2019
Orbit: 928 x 974 km, 65.0° (Epoch: 08 December)

Event Time Altitude Azimuth Distance (km) Brightness Sun altitude
Rises 02:24:51 0° 329° (NNW) 3,609 7.3 -20.2°
Reaches altitude 10° 02:27:23 10° 327° (NNW) 2,667 6.6 -20.7°
Maximum altitude 02:33:36 73° 244° (WSW) 993 4.1 -22.0°
Drops below altitude 10° 02:39:52 10° 161° (SSE) 2,686 6.2 -23.3°
Sets 02:42:25 0° 159° (SSE) 3,635 6.9 -23.8°
